Regional Weather Roundup
Issued by NWS Cleveland, OH

Home | Current Version | Previous Version | Graphics & Text | Print | Product List | Glossary On
Versions: 1 2 3 4 5 6 7 8 9 10 11 12 13 14 15 16 17 18 19 20 21 22 23 24 25 26 27 28 29 30 31 32 33 34 35 36 37 38 39 40 41 42 43 44 45 46 47 48 49 50
000
ASUS41 KCLE 210002
RWRCLE
OHIO REGIONAL WEATHER ROUNDUP
NATIONAL WEATHER SERVICE CLEVELAND, OH
800 PM EDT SUN APR 20 2014

NOTE: "FAIR" INDICATES FEW OR NO CLOUDS BELOW 12,000 FEET WITH NO
SIGNIFICANT WEATHER AND/OR OBSTRUCTIONS TO VISIBILITY.

OHZ001>008-015>018-024>027-034-035-043-044-210100-
   NORTHWEST OHIO

CITY           SKY/WX    TMP DP  RH WIND       PRES   REMARKS
DEFIANCE       PTCLDY    70  29  21 S3        30.12F
FINDLAY        PTCLDY    66  38  35 SW6       30.12F
TOLEDO EXPRESS PTCLDY    69  28  21 CALM      30.12F
TOLEDO EXEC    PTCLDY    60  41  49 E9        30.14F
LIMA           PTCLDY    71  33  24 SW3       30.13F
$$

OHZ009>014-019>023-028>033-038-089-210100-
   NORTHEAST OHIO

CITY           SKY/WX    TMP DP  RH WIND       PRES   REMARKS
CLE-HOPKINS    PTCLDY    65  34  31 NE8       30.17F
CLE-LAKEFRONT  PTCLDY    50  40  68 NE3       30.14S
CUY CO. ARPT   MOCLDY    70  28  21 S10       30.16F
LORAIN-ELYRIA  PTCLDY    69  34  27 CALM      30.15F
ASHTABULA      CLEAR     67  25  20 S6        30.17S
AKRON-CANTON   MOCLDY    69  21  16 CALM      30.16F
WOOSTER        PTCLDY    62  37  39 SE5       30.16F
MANSFIELD      PTCLDY    68  36  30 CALM      30.15F
YOUNGSTOWN     MOCLDY    68  19  15 S3        30.17F
$$

OHZ042-051>053-060>062-070>072-077>081-210100-
  SOUTHWEST OHIO

CITY           SKY/WX    TMP DP  RH WIND       PRES   REMARKS
CINC-COVINGTON CLOUDY    73  30  20 CALM      30.12F
CINC-LUNKEN    CLOUDY    67  48  50 S3        30.12F
HAMILTON       CLOUDY    69  44  40 NW3       30.13S
DAYTON         MOCLDY    68  40  35 SW5       30.14F
WRIGHT-PAT AFB MOCLDY    68  45  43 CALM      30.13S
DAYTON GENERAL MOCLDY    72  35  25 NW3       30.12F
WILMINGTON     PTCLDY    70  38  31 W3        30.13F
$$

OHZ036-037-039>041-045>050-054>059-063>069-073>076-082>088-210100-
  CENTRAL AND SOUTHEAST OHIO

CITY           SKY/WX    TMP DP  RH WIND       PRES   REMARKS
COLUMBUS       MOCLDY    74  35  24 CALM      30.12F
OSU AIRPORT    PTCLDY    70  33  25 SW3       30.13F
BOLTON FIELD   PTCLDY    69  40  33 CALM      30.14F
RICKENBACK AFB NOT AVBL
NEWARK         PTCLDY    71  29  21 CALM      30.13F
MARION         PTCLDY    64  39  39 S3        30.14F
LANCASTER      PTCLDY    68  31  25 CALM      30.13F
ZANESVILLE     PTCLDY    72  22  15 CALM      30.14F
NEW PHILLY     CLEAR     69  22  16 CALM      30.15F
$$



USA.gov is the U.S. government's official web portal to all federal, state and local government web resources and services.